XE3JAR Weather Reports


Display with metric or nautical units.
time (UTC)temp
F
wind
direction
speed
MPH
gust
MPH
rain 1hr
in
rain 24hr
in
rain mn
in
humidity
%
barometer
mb
20260504050711 77 180 0.0 0.0 0.00 0.27 0.00 99 1021.3
20260504040117 75 113 0.0 0.0 0.00 0.27 0.00 99 1021.0
20260504034056 75 248 0.0 0.0 0.00 0.27 0.00 99 1021.0
20260504030500 75 90 0.0 13.0 0.00 0.26 0.00 99 1021.0
20260504024510 77 68 11.0 11.0 0.00 0.26 0.00 99 1020.7
20260504014324 77 203 4.0 18.0 0.00 0.18 0.00 99 1020.3
20260504011823 77 225 11.0 11.0 0.00 0.08 0.00 99 1020.0
20260504010757 79 225 11.0 13.0 0.00 0.08 0.00 99 1020.0
20260503234545 79 315 11.0 22.0 0.00 0.08 0.00 99 1018.6
20260503233538 81 248 22.0 22.0 0.00 0.08 0.00 98 1018.6
20260503233034 81 180 18.0 18.0 0.00 0.08 0.00 97 1018.6
20260503231528 81 338 18.0 29.0 0.00 0.08 0.00 97 1018.6
20260503230010 81 293 18.0 18.0 0.00 0.08 0.00 96 1018.6
20260503214839 82 315 11.0 22.0 0.00 0.08 0.00 92 1019.0
20260503210325 84 23 11.0 25.0 0.00 0.08 0.00 88 1019.0
20260503205240 86 203 7.0 29.0 0.00 0.08 0.00 87 1019.3
20260503204736 86 315 22.0 22.0 0.00 0.08 0.00 87 1019.3
20260503201900 84 293 36.0 36.0 0.00 0.08 0.00 91 1019.6
20260503201412 84 293 13.0 43.0 0.00 0.08 0.00 91 1019.6
20260503200343 84 315 18.0 25.0 0.00 0.07 0.00 88 1019.6
20260503190813 88 270 22.0 22.0 0.00 0.07 0.00 86 1020.3
20260503174355 86 203 7.0 11.0 0.00 0.03 0.00 85 1021.7
20260503150441 84 293 7.0 13.0 0.00 0.03 0.00 88 1021.3
20260503054410 82 225 0.0 18.0 0.00 0.00 0.00 94 1020.3